Regional Weather Roundup
Issued by NWS

Home | Current Version | Previous Version | Graphics & Text | Print | Product List | Glossary On
Versions: 1 2 3 4 5 6 7 8 9 10 11 12 13 14 15 16 17 18 19 20 21 22 23 24 25 26 27 28 29 30 31 32 33 34 35 36 37 38 39 40 41 42 43 44 45 46 47 48 49 50
000
ASUS45 KCYS 060810
RWRWY

WYOMING REGIONAL WEATHER ROUNDUP
NATIONAL WEATHER SERVICE CHEYENNE WY
200 AM MDT WED MAY 06 2015

NOTE:  "FAIR" INDICATES FEW OR NO CLOUDS BELOW 12,000 FEET
WITH NO SIGNIFICANT WEATHER AND/OR OBSTRUCTIONS TO VISIBILITY.

WYZ001-060900-
YELLOWSTONE NATIONAL PARK

CITY           SKY/WX    TMP DP  RH WIND       PRES   REMARKS
LK YELLOWSTONE   N/A     32  30  92 CALM      29.91S
W YELLOWSTONE  NOT AVBL

$$
WYZ002>013-054>058-071-098>099-060900-
NORTHERN WYOMING

CITY           SKY/WX    TMP DP  RH WIND       PRES   REMARKS
JACKSON        FAIR      43  39  87 CALM      29.85F
CODY           CLOUDY    52  45  76 N6        29.78F
GREYBULL       FAIR      59  43  55 NW21G28   29.70R
WORLAND        CLOUDY    58  44  60 N8        29.73R
SHERIDAN       FAIR      53  43  68 CALM      29.71R
BUFFALO        FAIR      49  45  86 E3        29.76S
GILLETTE       FAIR      52  47  83 S22G28    29.71F
HULETT         PTSUNNY   55  46  71 S10       29.75F
NEWCASTLE      FAIR      52  46  82 SE9       29.78F

$$
WYZ014>020-022>026-101>103-060900-
CENTRAL WYOMING

CITY           SKY/WX    TMP DP  RH WIND       PRES   REMARKS
BIG PINEY      CLOUDY    45  39  79 CALM      29.85F
PINEDALE       CLOUDY    45  37  76 W8        29.85F
DUBOIS         PTSUNNY   43  36  75 NW6       29.82F
LANDER         LGT RAIN  53  45  74 CALM      29.74R
RIVERTON       CLOUDY    54  44  69 N8        29.76R
CASPER         FAIR      45  42  89 N6        29.73F
DOUGLAS        FAIR      50  48  93 SE10      29.75F

$$
WYZ021-027>030-104>119-060900-
SOUTHERN WYOMING

CITY           SKY/WX    TMP DP  RH WIND       PRES   REMARKS
EVANSTON       LGT RAIN  44  43  96 SW3       29.89F
KEMMERER       CLOUDY    43  41  93 W3        29.88F
FORT BRIDGER   CLOUDY    46  45  93 W12       29.90F
ROCK SPRINGS   CLOUDY    47  41  80 SW12      29.82F
DIXON          CLOUDY    49  45  87 CALM      29.83F
RAWLINS        FAIR      42  38  85 N3        29.80S
SARATOGA       CLOUDY    45  41  87 W6        29.80F
LARAMIE        CLOUDY    41  39  93 S6        29.78F
CHEYENNE       LGT RAIN  47  45  93 N9        29.74F FOG
TORRINGTON     CLOUDY    51  50  96 E9        29.72F
PINE BLUFFS    DRIZZLE   50  50 100 E7        29.73F

$$


USA.gov is the U.S. government's official web portal to all federal, state and local government web resources and services.